Location: Cartignies
(50.0929°N, 3.8447°E)
Time: 14:40:25
(UTC+00:00)

SKYMED 2 - Pass Details

Date: 12 January 2026
Orbit: 622 x 624 km, 97.9° (Epoch: 16 February)

Event Time Altitude Azimuth Distance (km) Brightness Sun altitude
Exits shadow 18:32:22 13° 3° (N) 1,841 5.9 -22.6°
Maximum altitude 18:36:09 49° 290° (WNW) 811 4.4 -23.2°
Drops below altitude 10° 18:40:19 10° 216° (SW) 1,990 6.7 -23.8°
Sets 18:42:33 0° 211° (SSW) 2,891 7.5 -24.2°
